[[{"header":{"parameterUnit":"m.s-1","parameterCategory":1,"la1":30.2991,"la2":30.254,"lo1":-89.0895,"lo2":-89.0444,"dy":0.0017,"dx":0.0017,"nx":28,"ny":28,"refTime":"2023-11-16T09:00:00:Z","depth":0,"parameterNumber":2,"parameterNumberName":"U-component_of_WINDS"},"data":[0,0,0,0,0,0,0,0,0,0,0,0,0,0,0,0,0,0,0,0,0,0,0,0,0,0,0,0,0,0,0,0,0,0,0,0,0,0,0,0,0,0,0,0,0,0,0,0,0,0,0,0,0,0,0,0,0,0,1.1912,1.1911,0,1.1903,1.1903,1.1903,1.1861,1.186,1.1859,1.1858,1.1851,1.1852,1.1852,0,0,0,0,0,0,0,0,0,0,0,0,0,1.1892,1.1892,1.1912,1.1911,1.1911,1.1903,1.1903,1.1903,1.1861,1.186,1.1858,1.1857,1.1851,1.1851,1.1852,0,0,0,0,0,0,0,0,0,0,0,0,0,1.1894,1.1892,1.1912,1.1889,1.1887,1.1903,1.1903,1.1903,1.1861,1.186,1.1858,1.1857,1.185,1.1851,1.1853,1.189,0,0,1.1856,1.1857,0,0,0,0,0,0,0,0,1.1893,1.1894,1.1893,1.1891,1.1889,1.1881,1.1894,1.1899,1.1862,1.1871,1.1858,1.1856,1.1862,1.1862,1.1864,1.189,1.1889,1.1856,1.1857,1.1857,1.1858,0,0,0,0,0,0,0,1.1893,1.1894,1.1908,1.1893,1.189,1.188,1.1879,1.1894,1.1875,1.187,1.1867,1.1867,1.1861,1.1863,1.1864,1.1889,1.1856,1.1857,1.1858,1.1858,1.1944,1.1946,0,0,0,0,0,0,1.1896,1.1895,1.1909,1.1908,1.1887,1.1882,1.188,1.1885,1.1875,1.1872,1.1868,1.1865,1.1862,1.1863,1.1863,1.1906,1.1857,1.1858,1.1859,1.1943,1.1945,1.1946,0,0,0,0,0,0,1.1896,1.1898,1.1909,1.19,1.1901,1.1884,1.189,1.1886,1.1888,1.1873,1.187,1.1874,1.1861,1.1862,1.1883,1.1905,1.1859,1.186,1.1941,1.1943,1.1945,1.1992,0,0,0,0,0,0,1.1896,1.1898,1.1912,1.1901,1.1902,1.1929,1.1891,1.1887,1.189,1.1886,1.1878,1.1875,1.186,1.1882,1.1885,1.1906,1.1861,1.1939,1.1942,1.1945,1.1989,1.1996,1.2002,0,0,0,0,0,1.1895,1.1926,1.1913,1.1915,1.1919,1.193,1.1931,1.1912,1.1892,1.1906,1.1896,1.1875,1.1902,1.1885,1.1887,1.1909,1.1937,1.1941,1.1944,1.1986,1.1994,1.2002,0,0,0,0,0,0,1.1941,1.1924,1.191,1.1938,1.1936,1.1923,1.194,1.1922,1.1926,1.1922,1.1899,1.1898,1.1923,1.1918,1.1898,1.1945,1.1916,1.1921,1.1947,1.1955,1.1962,1.1962,1.1862,0,0,0,0,0,1.1954,1.1964,1.195,1.1976,1.1976,1.1958,1.1963,1.1948,1.1945,1.1944,1.1936,1.1935,1.1943,1.1949,1.1955,1.1988,1.1985,1.2004,1.2011,1.2016,1.202,1.2037,1.2045,1.1958,1.1958,1.1958,0,0,1.1982,1.1974,1.1982,1.1985,1.1982,1.1993,1.1958,1.1972,1.198,1.1947,1.1966,1.196,1.1957,1.1984,1.1996,1.1981,1.2044,1.2021,1.2026,1.2027,1.2041,1.2049,1.2057,1.1961,1.196,1.196,0,0,1.2038,1.2033,1.2054,1.2052,1.2047,1.2035,1.204,1.203,1.2024,1.2044,1.2019,1.2028,1.2043,1.2041,1.2042,1.2097,1.2078,1.21,1.2135,1.2151,1.2158,1.2164,1.2183,1.219,1.2104,1.2104,1.2104,0,1.2073,1.2089,1.2068,1.2083,1.2085,1.2054,1.2076,1.2074,1.2072,1.2074,1.2058,1.2074,1.207,1.2096,1.2109,1.2111,1.2116,1.2101,1.2159,1.2164,1.217,1.2188,1.2195,1.2107,1.2106,1.2106,1.2106,0,1.2133,1.2144,1.2162,1.216,1.2163,1.2182,1.2163,1.217,1.2155,1.2145,1.2164,1.2158,1.2162,1.2167,1.2153,1.2191,1.2182,1.2163,1.2134,1.2181,1.2197,1.2204,1.2111,1.211,1.2109,1.2108,0,0,1.2218,1.2203,1.221,1.2208,1.22,1.2209,1.2225,1.2229,1.2235,1.2234,1.2248,1.226,1.2242,1.2243,1.2228,1.2243,1.2286,1.2221,1.2221,1.2233,1.2326,1.2341,1.2349,1.2273,1.2274,1.2275,1.2327,0,1.2272,1.2299,1.228,1.231,1.232,1.2291,1.2306,1.2302,1.2293,1.2301,1.229,1.2299,1.2275,1.2275,1.2288,1.2278,1.2304,1.2274,1.2285,1.2286,1.2287,1.2358,1.2374,1.2423,1.2333,1.2334,1.2335,0,1.2338,1.234,1.2371,1.236,1.2363,1.2377,1.2378,1.2385,1.2381,1.2373,1.2374,1.2356,1.2371,1.2343,1.2364,1.2344,1.2347,1.2343,1.2344,1.2345,1.2313,1.236,1.2438,1.2445,1.2345,1.2344,1.2343,0,1.2397,1.2407,1.2426,1.2426,1.2414,1.2424,1.2419,1.2413,1.2416,1.2418,1.2419,1.2423,1.2425,1.2428,1.2411,1.2392,1.2434,1.2404,1.2428,1.2428,1.2438,1.2438,1.2518,1.2441,1.2441,1.2441,1.2441,0,1.2459,1.2479,1.2453,1.2465,1.2487,1.2464,1.2486,1.2479,1.2473,1.2484,1.2459,1.2469,1.2446,1.2454,1.2441,1.246,1.2461,1.2455,1.2451,1.2457,1.2458,1.2459,1.2455,1.2443,1.2442,1.2442,1.2441,0,1.2529,1.2512,1.2531,1.2517,1.2514,1.2531,1.252,1.253,1.2519,1.2532,1.2534,1.2517,1.2524,1.2508,1.2513,1.2504,1.2531,1.2522,1.2533,1.253,1.2555,1.2552,1.2638,1.2648,1.2565,1.2566,1.2567,0,1.2569,1.2584,1.2572,1.2576,1.2573,1.2581,1.2584,1.2562,1.2566,1.2561,1.2573,1.2578,1.2582,1.2595,1.2583,1.2588,1.2578,1.2608,1.2579,1.2584,1.2578,1.2577,1.2579,1.2614,1.2615,1.2616,1.2616,0,1.2643,1.2633,1.2638,1.264,1.2643,1.2644,1.2642,1.2648,1.2625,1.263,1.2638,1.264,1.2645,1.2651,1.2652,1.2648,1.2628,1.2626,1.2631,1.2637,1.2643,1.264,1.2549,1.2624,1.2623,1.2623,1.2622,1.2622,1.2699,1.271,1.2703,1.2709,1.2705,1.2704,1.2713,1.2703,1.2708,1.271,1.2697,1.2707,1.2702,1.2701,1.2699,1.2706,1.2693,1.2701,1.2703,1.2706,1.2709,1.2641,1.2706,1.2706,1.2706,1.2706,1.2706,0,1.2771,1.2765,1.277,1.2768,1.2773,1.2753,1.2751,1.2756,1.2765,1.2761,1.2764,1.2772,1.2777,1.2766,1.2769,1.2777,1.2768,1.2779,1.2778,1.2777,1.2721,1.2716,1.2786,1.2786,1.2786,1.2786,1.2786,1.2786,1.2809,1.2827,1.2817,1.2833,1.2826,1.2835,1.2835,1.2834,1.2831,1.284,1.2844,1.2836,1.2829,1.2831,1.2835,1.2832,1.2834,1.2847,1.2841,1.2789,1.2781,1.2774,1.2768,1.2848,1.2848,1.2896,1.2896,1.2896]},{"header":{"parameterUnit":"m.s-1","parameterCategory":1,"la1":30.2991,"la2":30.254,"lo1":-89.0895,"lo2":-89.0444,"dy":0.0017,"dx":0.0017,"nx":28,"ny":28,"refTime":"2023-11-16T09:00:00:Z","depth":0,"parameterNumber":3,"parameterNumberName":"V-component_of_WINDS"},"data":[0,0,0,0,0,0,0,0,0,0,0,0,0,0,0,0,0,0,0,0,0,0,0,0,0,0,0,0,0,0,0,0,0,0,0,0,0,0,0,0,0,0,0,0,0,0,0,0,0,0,0,0,0,0,0,0,0,0,-1.0891,-1.0891,0,-1.0861,-1.0861,-1.0861,-1.0878,-1.0879,-1.088,-1.0881,-1.0847,-1.0845,-1.0843,0,0,0,0,0,0,0,0,0,0,0,0,0,-1.0962,-1.096,-1.0891,-1.0891,-1.0891,-1.0862,-1.0861,-1.0861,-1.0878,-1.0879,-1.088,-1.0881,-1.0847,-1.0845,-1.0843,0,0,0,0,0,0,0,0,0,0,0,0,0,-1.0931,-1.096,-1.0891,-1.0896,-1.0896,-1.0862,-1.0861,-1.0861,-1.0878,-1.0879,-1.0881,-1.0882,-1.0848,-1.0845,-1.0843,-1.0801,0,0,-1.0835,-1.0834,0,0,0,0,0,0,0,0,-1.0933,-1.0929,-1.0896,-1.0896,-1.0896,-1.0875,-1.0873,-1.084,-1.0878,-1.0885,-1.0881,-1.0883,-1.0855,-1.0852,-1.0843,-1.08,-1.0798,-1.0835,-1.0833,-1.0832,-1.0831,0,0,0,0,0,0,0,-1.0935,-1.093,-1.0879,-1.0895,-1.0895,-1.0899,-1.0896,-1.0867,-1.0863,-1.0884,-1.0885,-1.0882,-1.0855,-1.0846,-1.0843,-1.0798,-1.0835,-1.0833,-1.0831,-1.083,-1.0721,-1.072,0,0,0,0,0,0,-1.0937,-1.0932,-1.088,-1.0878,-1.0918,-1.0897,-1.0893,-1.088,-1.0863,-1.0862,-1.0881,-1.0883,-1.0849,-1.0846,-1.0841,-1.0794,-1.0832,-1.083,-1.0828,-1.0723,-1.0721,-1.072,0,0,0,0,0,0,-1.0939,-1.0933,-1.0881,-1.0906,-1.0899,-1.0894,-1.0879,-1.0879,-1.087,-1.0861,-1.086,-1.0872,-1.085,-1.0845,-1.0812,-1.0793,-1.0829,-1.0826,-1.0724,-1.0722,-1.072,-1.0696,0,0,0,0,0,0,-1.0941,-1.0933,-1.0917,-1.0905,-1.0898,-1.0853,-1.0878,-1.0877,-1.0866,-1.0868,-1.0852,-1.0851,-1.0851,-1.0816,-1.081,-1.079,-1.0824,-1.0726,-1.0723,-1.0721,-1.0699,-1.0694,-1.069,0,0,0,0,0,-1.0943,-1.091,-1.0916,-1.091,-1.0878,-1.0852,-1.0848,-1.0849,-1.0864,-1.0848,-1.0843,-1.0851,-1.0796,-1.0812,-1.0805,-1.0784,-1.0727,-1.0724,-1.0721,-1.0701,-1.0695,-1.069,0,0,0,0,0,0,-1.0918,-1.0908,-1.0915,-1.0877,-1.0866,-1.0855,-1.0835,-1.0842,-1.0825,-1.0828,-1.083,-1.0826,-1.0792,-1.0785,-1.0803,-1.0745,-1.0764,-1.0759,-1.0751,-1.0745,-1.074,-1.0743,-1.0822,0,0,0,0,0,-1.0908,-1.0888,-1.0881,-1.0848,-1.0842,-1.0839,-1.0828,-1.0831,-1.0818,-1.0812,-1.0804,-1.0791,-1.0771,-1.0757,-1.0738,-1.0698,-1.0696,-1.0681,-1.0676,-1.0672,-1.0668,-1.0649,-1.0643,-1.071,-1.071,-1.071,0,0,-1.0887,-1.088,-1.0866,-1.0843,-1.0834,-1.0813,-1.0835,-1.0811,-1.0796,-1.0808,-1.0778,-1.0772,-1.0757,-1.0721,-1.0705,-1.0714,-1.065,-1.0668,-1.0665,-1.0663,-1.0646,-1.0639,-1.0634,-1.0708,-1.0708,-1.0708,0,0,-1.0839,-1.083,-1.0804,-1.0795,-1.0783,-1.0782,-1.0776,-1.0764,-1.0762,-1.0731,-1.0741,-1.0723,-1.0687,-1.0677,-1.0667,-1.0619,-1.0627,-1.0613,-1.0588,-1.057,-1.0564,-1.056,-1.0544,-1.0539,-1.0609,-1.0609,-1.0609,0,-1.0814,-1.0784,-1.0788,-1.0766,-1.0756,-1.0768,-1.0742,-1.0733,-1.0714,-1.0706,-1.0717,-1.0676,-1.0666,-1.063,-1.0618,-1.0609,-1.0603,-1.0614,-1.0565,-1.056,-1.0556,-1.0542,-1.0536,-1.0607,-1.0607,-1.0608,-1.0608,0,-1.0755,-1.0734,-1.0714,-1.0699,-1.0686,-1.0661,-1.0662,-1.0649,-1.0654,-1.0652,-1.0622,-1.0612,-1.0592,-1.0583,-1.0586,-1.0548,-1.0555,-1.0565,-1.0584,-1.0548,-1.0535,-1.0529,-1.0605,-1.0606,-1.0606,-1.0606,0,0,-1.0688,-1.0678,-1.0671,-1.0665,-1.0653,-1.0637,-1.0613,-1.0596,-1.0586,-1.0573,-1.0554,-1.0525,-1.0536,-1.0525,-1.0527,-1.0511,-1.0476,-1.0524,-1.0524,-1.0517,-1.0436,-1.0429,-1.0422,-1.0482,-1.0481,-1.048,-1.0438,0,-1.0641,-1.0601,-1.0606,-1.0568,-1.055,-1.0563,-1.0543,-1.0534,-1.0532,-1.0516,-1.0514,-1.0494,-1.0509,-1.0503,-1.0487,-1.0484,-1.046,-1.0487,-1.0464,-1.0464,-1.0469,-1.0415,-1.0407,-1.0368,-1.0432,-1.0431,-1.0431,0,-1.0579,-1.0568,-1.0528,-1.0523,-1.0515,-1.0497,-1.0483,-1.0468,-1.0458,-1.0458,-1.0448,-1.0454,-1.0431,-1.0451,-1.042,-1.0438,-1.0429,-1.0426,-1.0425,-1.0423,-1.0445,-1.0413,-1.0355,-1.035,-1.0422,-1.0423,-1.0423,0,-1.0537,-1.0511,-1.0485,-1.0479,-1.0471,-1.0459,-1.0454,-1.0446,-1.0437,-1.0424,-1.0418,-1.0402,-1.0394,-1.0382,-1.0384,-1.0398,-1.0353,-1.0373,-1.0353,-1.0353,-1.0343,-1.0344,-1.0284,-1.0336,-1.0336,-1.0336,-1.0336,0,-1.0484,-1.046,-1.0466,-1.045,-1.0424,-1.043,-1.0404,-1.0402,-1.0395,-1.0379,-1.0389,-1.0373,-1.0377,-1.0361,-1.0363,-1.0338,-1.0334,-1.0334,-1.0334,-1.0333,-1.0334,-1.0328,-1.0331,-1.0334,-1.0335,-1.0335,-1.0335,0,-1.0432,-1.0435,-1.0408,-1.0404,-1.0403,-1.0384,-1.038,-1.0366,-1.0366,-1.0346,-1.0341,-1.0341,-1.0324,-1.0325,-1.0305,-1.0306,-1.0276,-1.028,-1.028,-1.0281,-1.0263,-1.0265,-1.0198,-1.019,-1.0246,-1.0245,-1.0245,0,-1.0399,-1.0381,-1.0376,-1.0367,-1.0363,-1.0348,-1.0339,-1.0345,-1.0335,-1.0325,-1.0312,-1.0296,-1.0284,-1.0256,-1.0254,-1.024,-1.0244,-1.0221,-1.0241,-1.0242,-1.0245,-1.0247,-1.0246,-1.0217,-1.0217,-1.0216,-1.0216,0,-1.0339,-1.0343,-1.033,-1.0319,-1.0309,-1.03,-1.0292,-1.0283,-1.0289,-1.0277,-1.0262,-1.0252,-1.0234,-1.0219,-1.0206,-1.0201,-1.021,-1.021,-1.0205,-1.0204,-1.0206,-1.0206,-1.0271,-1.0211,-1.0211,-1.0212,-1.0212,-1.0212,-1.0297,-1.0283,-1.0278,-1.0265,-1.026,-1.0253,-1.024,-1.024,-1.0227,-1.0214,-1.0218,-1.02,-1.0194,-1.0177,-1.0172,-1.0158,-1.0166,-1.0159,-1.0157,-1.0155,-1.0154,-1.0207,-1.0156,-1.0156,-1.0156,-1.0156,-1.0156,0,-1.024,-1.0238,-1.0226,-1.0216,-1.0206,-1.0216,-1.0209,-1.0199,-1.0184,-1.0178,-1.0167,-1.015,-1.0136,-1.0134,-1.0121,-1.0111,-1.0115,-1.0108,-1.0109,-1.0108,-1.0147,-1.0153,-1.0105,-1.0105,-1.0105,-1.0105,-1.0105,-1.0105,-1.0209,-1.0187,-1.019,-1.0167,-1.0165,-1.0149,-1.0144,-1.0138,-1.0134,-1.0115,-1.0105,-1.0104,-1.01,-1.0087,-1.0076,-1.0075,-1.0071,-1.0062,-1.0064,-1.01,-1.0105,-1.011,-1.0116,-1.0061,-1.0061,-1.0027,-1.0026,-1.0026]}]]